Location: NJAA Observatory
(40.6819°N, 74.8979°W)
Time: 18:24:35
(UTC-05:00)

Iridium 84 - Visible Passes

Search period start: 17 January 2017 00:00
Search period end: 27 January 2017 00:00
Orbit: 776 x 779 km, 86.4° (Epoch: 17 January)

Date Brightness Start Highest point End Pass type
(mag) Time Alt. Az. Time Alt. Az. Time Alt. Az.
17 Jan 8.2 06:15:13 10° NNE 06:18:57 19° ENE 06:22:40 10° ESE visible
18 Jan 8.7 05:44:13 10° ENE 05:45:02 10° ENE 05:45:50 10° E visible
19 Jan 7.7 19:44:03 10° S 19:44:51 15° S 19:44:51 15° S visible
20 Jan 7.7 06:14:46 10° NNE 06:19:13 28° E 06:23:38 10° SE visible
20 Jan 6.8 19:10:40 10° SSE 19:12:55 26° SSE 19:12:55 26° SSE visible
21 Jan 8.3 05:42:21 10° NE 05:45:23 15° ENE 05:48:24 10° ESE visible
21 Jan 6.4 18:37:51 10° SE 18:41:18 29° ESE 18:41:18 29° ESE visible
21 Jan 7.4 20:18:36 10° SW 20:21:54 26° WSW 20:21:54 26° WSW visible
22 Jan 6.8 18:05:48 10° ESE 18:09:09 18° E 18:10:14 17° ENE visible
22 Jan 6.2 19:44:20 10° SSW 19:49:23 52° W 19:50:55 39° NW visible
23 Jan 7.0 06:14:32 10° NNE 06:19:26 39° E 06:24:18 10° SSE visible
23 Jan 5.4 19:10:37 10° S 19:15:49 85° E 19:21:04 10° N visible
23 Jan 8.5 20:56:02 10° W 20:57:14 11° WNW 20:58:27 10° WNW visible
24 Jan 8.0 05:41:40 10° NNE 05:45:41 22° ENE 05:49:41 10° SE visible
24 Jan 5.7 18:37:27 10° SSE 18:42:24 45° E 18:47:21 10° NNE visible
24 Jan 7.9 20:19:33 10° WSW 20:23:20 20° WNW 20:27:09 10° NNW visible
25 Jan 8.6 05:09:50 10° NE 05:11:47 12° ENE 05:13:44 10° E visible
25 Jan 6.5 18:04:54 10° SE 18:09:04 25° E 18:13:16 10° NNE visible
25 Jan 7.0 19:44:48 10° SSW 19:49:34 36° W 19:54:22 10° NNW visible
26 Jan 6.3 06:14:26 10° N 06:19:36 57° E 06:24:43 10° SSE visible
26 Jan 7.1 17:33:21 10° ESE 17:35:53 14° ENE 17:38:23 10° NE visible
26 Jan 5.8 19:10:46 10° S 19:15:56 67° W 19:21:09 10° N visible
